EW3079 Weather Reports


time (UTC)temp
F
wind
direction
speed
knots
gust
knots
rain 1hr
in
rain 24hr
in
rain mn
in
humidity
%
barometer
mb
20260504100122 40 90 0.0 0.0 0.00 0.00 0.00 77 1012.2
20260504090122 41 113 0.0 0.0 0.00 0.00 0.00 76 1012.5
20260504081123 41 158 0.0 0.0 0.00 0.00 0.00 77 1012.5
20260504080123 41 135 0.0 0.0 0.00 0.00 0.00 77 1012.6
20260504070122 42 135 0.0 0.0 0.00 0.00 0.00 76 1012.7
20260504060123 43 180 0.0 0.0 0.00 0.00 0.00 74 1012.7
20260504050123 44 229 0.0 1.7 0.00 0.00 0.00 74 1013.0
20260504045123 44 360 0.0 0.0 0.00 0.00 0.00 74 1012.8
20260504044123 44 338 0.0 0.0 0.00 0.00 0.00 73 1012.8
20260504043123 45 222 0.0 1.7 0.00 0.00 0.00 74 1012.8
20260504042122 45 225 0.0 0.9 0.00 0.00 0.00 72 1012.8
20260504041122 44 68 0.0 0.0 0.00 0.00 0.00 71 1012.8
20260504040123 44 158 0.0 0.0 0.00 0.00 0.00 71 1012.6
20260504035123 45 158 0.0 0.0 0.00 0.00 0.00 73 1012.7
20260504034123 45 203 0.0 0.0 0.00 0.00 0.00 71 1012.6
20260504033123 45 45 0.0 0.0 0.00 0.00 0.00 72 1012.5
20260504032123 45 23 0.0 0.0 0.00 0.00 0.00 70 1012.5
20260504031122 45 270 0.0 0.9 0.00 0.00 0.00 70 1012.5
20260504030143 46 247 0.0 0.9 0.00 0.00 0.00 70 1012.4
20260504025143 46 23 0.0 0.0 0.00 0.00 0.00 68 1012.4
20260504024122 46 23 0.0 0.0 0.00 0.00 0.00 67 1012.3
20260504023122 46 113 0.0 0.0 0.00 0.00 0.00 66 1012.3
20260504022122 47 23 0.0 0.0 0.00 0.00 0.00 67 1012.3
20260504021143 47 23 0.0 0.0 0.00 0.00 0.00 67 1012.3
20260504020122 47 23 0.0 0.0 0.00 0.00 0.00 65 1012.3
20260504015122 48 23 0.0 0.0 0.00 0.00 0.00 66 1012.2
20260504014122 48 45 0.0 0.0 0.00 0.00 0.00 61 1012.1
20260504013122 49 45 0.0 0.0 0.00 0.00 0.00 60 1012.1
20260504012123 49 45 0.0 0.0 0.00 0.00 0.00 58 1011.9
20260504011122 50 23 0.0 0.0 0.00 0.00 0.00 58 1011.9
20260504010122 50 247 0.0 1.7 0.00 0.00 0.00 59 1011.9
20260504005123 51 270 0.0 0.0 0.00 0.00 0.00 59 1011.8
20260504004122 51 203 0.0 0.0 0.00 0.00 0.00 58 1011.8
20260504003123 52 257 0.0 1.7 0.00 0.00 0.00 57 1011.5
20260504002123 53 225 0.0 0.0 0.00 0.00 0.00 56 1011.5
20260504001122 54 68 0.0 0.0 0.00 0.00 0.00 54 1011.5
20260504000122 55 248 0.0 0.0 0.00 0.00 0.00 54 1011.3
20260503235122 56 270 0.0 0.0 0.00 0.00 0.00 49 1011.2
20260503234122 57 271 0.9 2.6 0.00 0.00 0.00 52 1011.0
20260503233143 58 249 1.7 2.6 0.00 0.00 0.00 49 1011.1
20260503232122 59 253 1.7 3.5 0.00 0.00 0.00 45 1011.1
20260503231122 59 257 1.7 3.5 0.00 0.00 0.00 45 1011.1
20260503230123 60 265 1.7 3.5 0.00 0.00 0.00 44 1011.0
20260503225123 60 248 2.6 5.2 0.00 0.00 0.00 43 1011.1
20260503224123 60 253 3.5 5.2 0.00 0.00 0.00 43 1011.0
20260503223123 60 257 2.6 7.0 0.00 0.00 0.00 44 1011.0
20260503222123 60 256 3.5 7.0 0.00 0.00 0.00 42 1010.8
20260503221143 60 269 2.6 6.1 0.00 0.00 0.00 43 1010.8
20260503220122 60 281 3.5 6.1 0.00 0.00 0.00 42 1011.1
20260503215143 61 256 3.5 6.1 0.00 0.00 0.00 40 1011.0
20260503214122 61 264 3.5 7.0 0.00 0.00 0.00 41 1011.1
20260503213143 61 289 5.2 8.7 0.00 0.00 0.00 39 1011.0
20260503212122 62 286 4.3 9.6 0.00 0.00 0.00 39 1010.9
20260503211122 62 265 4.3 7.8 0.00 0.00 0.00 41 1010.9
20260503210122 61 298 4.3 7.0 0.00 0.00 0.00 40 1011.1
20260503205123 61 273 5.2 8.7 0.00 0.00 0.00 39 1010.9
20260503204123 62 287 5.2 11.3 0.00 0.00 0.00 40 1011.1
20260503203122 62 264 4.3 8.7 0.00 0.00 0.00 40 1011.0
20260503202122 62 263 5.2 9.6 0.00 0.00 0.00 40 1011.1
20260503201143 61 335 5.2 9.6 0.00 0.00 0.00 41 1011.1
20260503200123 60 246 3.5 7.8 0.00 0.00 0.00 40 1011.3
20260503195122 61 252 4.3 7.0 0.00 0.00 0.00 41 1011.5
20260503194123 61 273 4.3 8.7 0.00 0.00 0.00 39 1011.7
20260503193122 61 250 5.2 7.8 0.00 0.00 0.00 38 1011.7
20260503192122 60 258 4.3 7.8 0.00 0.00 0.00 40 1011.8
20260503191122 60 273 5.2 9.6 0.00 0.00 0.00 40 1011.8
20260503190143 59 311 5.2 13.0 0.00 0.00 0.00 39 1012.0
20260503185122 58 309 3.5 6.1 0.00 0.00 0.00 42 1012.0
20260503184122 60 327 4.3 8.7 0.00 0.00 0.00 42 1012.3
20260503183143 59 326 5.2 8.7 0.00 0.00 0.00 43 1012.5
20260503182122 59 279 5.2 10.4 0.00 0.00 0.00 43 1012.5
20260503181122 57 307 4.3 13.0 0.00 0.00 0.00 44 1012.5
20260503180143 56 314 5.2 7.8 0.00 0.00 0.00 44 1012.5
20260503175122 56 308 5.2 9.6 0.00 0.00 0.00 43 1012.7
20260503174122 56 300 4.3 7.8 0.00 0.00 0.00 44 1012.7
20260503173122 56 298 5.2 10.4 0.00 0.00 0.00 43 1012.7
20260503172122 56 279 4.3 6.1 0.00 0.00 0.00 44 1012.8
20260503171143 56 323 4.3 9.6 0.00 0.00 0.00 44 1012.8
20260503170122 54 331 6.1 17.4 0.00 0.00 0.00 44 1013.0
20260503160122 53 346 4.3 7.0 0.00 0.00 0.00 45 1013.5
20260503150143 50 293 4.3 7.0 0.00 0.00 0.00 49 1013.6
20260503140122 47 316 5.2 11.3 0.00 0.00 0.00 57 1013.9
20260503131122 45 61 4.3 7.0 0.00 0.00 0.00 64 1013.9
20260503130143 44 306 5.2 12.2 0.00 0.00 0.00 65 1013.6
20260503120122 42 13 4.3 7.0 0.00 0.00 0.00 70 1013.4
20260503110122 40 297 2.6 5.2 0.00 0.00 0.00 73 1012.7